Location: Hartford
(41.7640°N, 72.6860°W)
Time: 08:14:01
(UTC-04:00)

ISS - All Passes

Search period start: 01 October 2014 00:00
Search period end: 11 October 2014 00:00
Orbit: 413 x 416 km, 51.6° (Epoch: 01 October)

Date Brightness Start Highest point End Pass type
(mag) Time Alt. Az. Time Alt. Az. Time Alt. Az.
01 Oct - 00:44:55 10° WNW 00:47:17 18° NNW 00:49:40 10° NNE night (unlit)
01 Oct - 02:22:46 10° NNW 02:24:57 16° N 02:27:07 10° NE night (unlit)
01 Oct - 03:59:09 10° NW 04:02:19 39° NNE 04:05:28 10° E visible
01 Oct - 05:36:03 10° WNW 05:38:54 27° SW 05:41:45 10° SSE visible
01 Oct - 22:17:37 10° SW 22:20:57 83° SE 22:24:17 10° ENE night (unlit)
01 Oct - 23:55:18 10° WNW 23:57:58 22° NNW 00:00:39 10° NE night (unlit)
02 Oct - 01:33:33 10° NW 01:35:34 15° N 01:37:36 10° NE night (unlit)
02 Oct - 03:10:09 10° NW 03:13:05 28° NNE 03:16:00 10° E night (unlit)
02 Oct - 04:46:41 10° WNW 04:49:54 48° SW 04:53:06 10° SE visible
02 Oct - 21:28:41 10° SSW 21:31:52 46° SE 21:35:05 10° ENE night (unlit)
02 Oct - 23:05:44 10° W 23:08:40 28° NNW 23:11:38 10° NE night (unlit)
03 Oct - 00:44:09 10° NW 00:46:11 15° N 00:48:13 10° NE night (unlit)
03 Oct - 02:21:08 10° NW 02:23:47 21° NNE 02:26:25 10° ENE night (unlit)
03 Oct - 03:57:29 10° NW 04:00:49 86° SW 04:04:08 10° SE visible
03 Oct - 20:40:01 10° SSW 20:42:50 26° SE 20:45:40 10° ENE visible
03 Oct - 22:16:14 10° W 22:19:24 41° NNW 22:22:35 10° NE night (unlit)
03 Oct - 23:54:34 10° NW 23:56:46 16° N 23:58:57 10° NNE night (unlit)
04 Oct - 01:32:03 10° NNW 01:34:25 18° NNE 01:36:46 10° ENE night (unlit)
04 Oct - 03:08:22 10° NW 03:11:39 56° NNE 03:14:55 10° ESE night (unlit)
04 Oct - 04:45:44 10° W 04:48:03 18° SW 04:50:22 10° S night (unlit)
04 Oct - 19:51:52 10° SSE 19:53:50 15° SE 19:55:49 10° E visible
04 Oct - 21:26:52 10° WSW 21:30:10 66° NNW 21:33:30 10° NE night (unlit)
04 Oct - 23:04:54 10° WNW 23:07:21 19° NNW 23:09:48 10° NNE night (unlit)
05 Oct - 00:42:52 10° NNW 00:44:59 16° N 00:47:07 10° NE night (unlit)
05 Oct - 02:19:17 10° NW 02:22:23 36° NNE 02:25:30 10° E night (unlit)
05 Oct - 03:56:03 10° WNW 03:59:02 31° SW 04:02:00 10° SSE night (unlit)
05 Oct - 20:37:40 10° SW 20:40:59 72° SE 20:44:18 10° ENE visible
05 Oct - 22:15:12 10° WNW 22:17:57 23° NNW 22:20:41 10° NE night (unlit)
05 Oct - 23:53:30 10° NW 23:55:31 15° N 23:57:32 10° NE night (unlit)
06 Oct - 01:30:11 10° NW 01:33:03 26° NNE 01:35:55 10° E night (unlit)
06 Oct - 03:06:39 10° WNW 03:09:55 55° SW 03:13:10 10° SE night (unlit)
06 Oct - 19:48:42 10° SSW 19:51:49 39° SE 19:54:58 10° ENE visible
06 Oct - 21:25:33 10° W 21:28:34 31° NNW 21:31:35 10° NE visible
06 Oct - 23:03:58 10° NW 23:06:02 15° N 23:08:05 10° NE night (unlit)
07 Oct - 00:41:04 10° NW 00:43:39 20° NNE 00:46:13 10° ENE night (unlit)
07 Oct - 02:17:24 10° NW 02:20:44 83° NE 02:24:03 10° ESE night (unlit)
07 Oct - 03:55:44 10° WSW 03:56:57 12° SW 03:58:10 10° SSW night (unlit)
07 Oct - 19:00:03 10° S 19:02:43 22° SE 19:05:23 10° E visible
07 Oct - 20:36:00 10° WSW 20:39:13 45° NNW 20:42:27 10° NE visible
07 Oct - 22:14:16 10° NW 22:16:31 17° N 22:18:46 10° NNE night (unlit)
07 Oct - 23:51:53 10° NNW 23:54:10 17° N 23:56:28 10° NE night (unlit)
08 Oct - 01:28:12 10° NW 01:31:27 49° NNE 01:34:41 10° ESE night (unlit)
08 Oct - 03:05:22 10° W 03:07:54 20° SW 03:10:26 10° S night (unlit)
08 Oct - 18:12:03 10° SSE 18:13:38 13° SE 18:15:14 10° E daylight
08 Oct - 19:46:35 10° WSW 19:49:54 75° NW 19:53:14 10° NE visible
08 Oct - 21:24:30 10° WNW 21:27:01 20° NNW 21:29:33 10° NE visible
08 Oct - 23:02:34 10° NNW 23:04:39 15° N 23:06:44 10° NE night (unlit)
09 Oct - 00:39:01 10° NW 00:42:05 33° NNE 00:45:07 10° E night (unlit)
09 Oct - 02:15:42 10° WNW 02:18:47 35° SW 02:21:50 10° SSE night (unlit)
09 Oct - 18:57:21 10° SW 19:00:38 62° SE 19:03:56 10° ENE visible
09 Oct - 20:34:43 10° WNW 20:37:32 25° NNW 20:40:21 10° NE visible
09 Oct - 22:13:04 10° NW 22:15:05 15° N 22:17:05 10° NE night (unlit)
09 Oct - 23:49:51 10° NW 23:52:38 24° NNE 23:55:25 10° ENE night (unlit)
10 Oct - 01:26:15 10° WNW 01:29:33 65° SW 01:32:50 10° SE night (unlit)
10 Oct - 18:08:22 10° SSW 18:11:24 34° SE 18:14:27 10° ENE daylight
10 Oct - 19:45:00 10° W 19:48:04 34° NNW 19:51:09 10° NE visible
10 Oct - 21:23:24 10° NW 21:25:30 16° N 21:27:36 10° NNE visible
10 Oct - 23:00:37 10° NW 23:03:07 19° NNE 23:05:36 10° ENE night (unlit)
